Notices

What's New in latest Release from April 7th, 2021:

- Updated Glossary, including Speed of Maximum Gust, and Total Hourly Precipitation

- Updated national and regional climate services offices contacts and prices information

- Addition of station inventory lists for 1981-2010, 1971-2000, and 1961-1990 Normals.

If you haven't already, please take our survey and provide feedback about our website: https://eccc.sondage-survey.ca/f/LanguageSelection.aspx?s=442ca660-fcf1-47c0-95a9-59707d6fd709

Hourly Data Report for January 20, 2006

TORONTO CITY
ONTARIO

43°40'00.000" N
79°24'00.000" W
112.50 m
6158355
71508
XTO

Download Data

Hourly Data (January 2006)
Hourly Data Report for January 20, 2006
TIME
LST
Temp Definition
°C
Dew Point Definition
°C
Rel Hum Definition
%
Precip. Amount Definition
mm

Wind Dir Definition
10's deg

Wind Spd Definition
km/h
Visibility Definition
km
Stn Press Definition
kPa
Hmdx Definition


Wind Chill Definition


Weather Definition


00:00 4.5 1.4 80   LegendMM LegendMM   99.82     LegendNANA
01:00 4.8 1.8 81   LegendMM LegendMM   99.76     LegendNANA
02:00 4.9 1.8 80   LegendMM LegendMM   99.76     LegendNANA
03:00 6.6 2.0 72   LegendMM LegendMM   99.74     LegendNANA
04:00 7.0 2.2 71   LegendMM LegendMM   99.77     LegendNANA
05:00 7.3 2.8 73   LegendMM LegendMM   99.79     LegendNANA
06:00 6.5 3.2 79   LegendMM LegendMM   99.79     LegendNANA
07:00 6.3 3.8 84   LegendMM LegendMM   99.83     LegendNANA
08:00 7.1 4.1 81   LegendMM LegendMM   99.85     LegendNANA
09:00 7.9 5.0 82   LegendMM LegendMM   99.91     LegendNANA
10:00 9.4 6.0 79   LegendMM LegendMM   99.97     LegendNANA
11:00 11.1 6.8 75   LegendMM LegendMM   99.96     LegendNANA
12:00 11.6 7.4 75   LegendMM LegendMM   100.00     LegendNANA
13:00 11.2 6.7 74   LegendMM LegendMM   100.02     LegendNANA
14:00 11.2 5.9 70   LegendMM LegendMM   100.08     LegendNANA
15:00 9.8 5.2 73   LegendMM LegendMM   100.17     LegendNANA
16:00 7.7 3.5 75   LegendMM LegendMM   100.28     LegendNANA
17:00 5.7 2.4 79   LegendMM LegendMM   100.33     LegendNANA
18:00 4.6 1.5 80   LegendMM LegendMM   100.42     LegendNANA
19:00 4.2 1.1 80   LegendMM LegendMM   100.41     LegendNANA
20:00 3.8 1.0 82   LegendMM LegendMM   100.36     LegendNANA
21:00 3.6 0.6 81   LegendMM LegendMM   100.23     LegendNANA
22:00 3.1 1.0 86   LegendMM LegendMM   100.15     LegendNANA
23:00 2.1 1.0 92   LegendMM LegendMM   100.09     LegendNANA

Notes on Data Quality.

Legend

  • E = Estimated
  • M = Missing
  • NA = Not Available*
  • [empty] = Indicates an unobserved value
Date modified: